NOAA 16 DEB

Satellite information

Favourite Embed

Satellite Type and Status

DEBRISIN ORBIT

Key statistics

Satellite NOAA 16 DEB at a glance.

Uptime

9156

Days in orbit

Revolutions

≈ 14.1

Per day

Orbit

SSO

Sun Synchronous Orbit

Inclination

98.8

Latest

Satellite identification and parameters

Extended collection of information and parameters for NOAA 16 DEB.

Object identification

Identified? True

Debris? True

Object name: NOAA 16 DEB

International designator: 2000-055JA

Object number (NORAD): 41357

Object ID (CCSDS): 41357

Country: UNITED STATES OF AMERICA (US)

Current information (Y/N): Y

RCS size: SMALL

Orbital parameters

Period: 102.461 minutes

Inclination: 98.8365 deg

SMA: 7253.252 km

Apoapsis: 928.961 km

Periapsis: 821.273 km

RAAN: 277.1233 deg

Eccentricy: 0.00742337

Argument of periapsis: 36.3468 deg

Mean anomaly: 324.2709 deg

Mean motion: 14.05411863 rev/day

Mean motion (dot): 0.00003539 rev/day2

B* drag term: 0.0021539224 1/REarth

Two-line elements (TLE)

Creation date: Oct. 15, 2025, 2:21 a.m.

Reference frame: TEME

Reference center: EARTH

Epoch: Oct. 14, 2025, 10:03 p.m. UTC

TLE line 0: 0 NOAA 16 DEB

TLE line 1: 1 41357U 00055JA 25287.91944209 .00003539 00000-0 21539-2 0 9994

TLE line 2: 2 41357 98.8365 277.1233 0074234 36.3468 324.2709 14.05411863495475

Live tracking on map

Real-time ground track for satellite NOAA 16 DEB.

In-orbit conjunctions

A list of the most updated potential collisions computed for object NOAA 16 DEB.

Target Orbit TCA Probability of collision Miss distance Type
SL-16 DEB LEO 2025-04-18 10:01:15 0.0001639974 184.0 (m) DEBRIS
CZ-4 DEB SSO 2024-07-17 02:52:15 0.0001900227 42.0 (m) DEBRIS
FENGYUN 1C DEB SSO 2024-06-25 07:16:49 0.0001146838 172.0 (m) DEBRIS

Associated space launch

The NOAA K, L and M POES satellites begin the fifth generation of improved environmental monitoring in support of NOAA missions. The instrument payload has significant improvements and additions/deletions. The instrument changes have effected the spacecraft subsystems and data formats.

NOAA 16 DEB was lifted into orbit during the mission ‘Titan II SLV | NOAA 16’, on board a Titan II SLV space rocket.

The launch took place on Sept. 21, 2000, 10:22 a.m. from Space Launch Complex 4W.

For more information about the launch, click the button.

Launch to space Titan II SLV | NOAA 16
Titan II SLV | NOAA 16

Agency: N/A

Status: Launch Successful

Launch date: Sept. 21, 2000, 10:22 a.m. UTC

Rocket: Titan II SLV

Launch pad: Space Launch Complex 4W

Location: Vandenberg SFB, CA, USA

...

Latest news about this satellite

There are no fresh news available about this satellite. Check back as we update our databases every day.


Newsletter sign-up

Weekly statistics, charts and insights to help you stay on top of the space industry.